Regional Weather Roundup
Issued by NWS Sterling, VA

Home | Current Version | Previous Version | Graphics & Text | Print | Product List | Glossary On
Versions: 1 2 3 4 5 6 7 8 9 10 11 12 13 14 15 16 17 18 19 20 21 22 23 24 25 26 27 28 29 30 31 32 33 34 35 36 37 38 39 40 41 42 43 44 45 46 47 48 49 50
000
ASUS41 KLWX 112110
RWRLWX

REGIONAL WEATHER ROUNDUP
NATIONAL WEATHER SERVICE BALTIMORE MD/WASHINGTON DC
400 PM EST THU FEB 11 2016

Note: "FAIR" indicates few or no clouds below 12,000 feet
with no significant weather and/or obstructions to visibility.
 TC=TEMPERATURE CELSIUS

 * =Non NWS site. Station does not report precipitation (e.g. rain,
    snow, etc.), thunder, or fog.

DCZ001-MDZ009-015-VAZ040>042-051-053>054-112200-
WASHINGTON METRO

CITY           SKY/WX    TMP DP  RH WIND       PRES   REMARKS
WASHINGTON NAT FAIR      29   0  28 NW16G24   30.16R WCI  17
DULLES         FAIR      26   0  32 NW24G31   30.16R WCI  11
ANDREWS AFB    SUNNY     27  -1  30 NW22G32   30.13R WCI  12
FT BELVOIR     FAIR      29  -1  27 NW24G31   30.15R WCI  14
QUANTICO       FAIR      32   2  27 N17G25    30.17R WCI  21
COLLEGE PARK*  FAIR      28   1  31 W14G23    30.15R WCI  17
LEESBURG*      FAIR      28   9  43 W21G29    30.17R WCI  15
MANASSAS*      SUNNY     28   3  34 NW17G29   30.16R WCI  16
GAITHERSBURG*  MOSUNNY   23   1  39 W14G25    30.16R WCI  11

$$

MDZ006>007-011-014-112200-
BALTIMORE METRO

CITY           SKY/WX    TMP DP  RH WIND       PRES   REMARKS
BWI AIRPORT    MOSUNNY   26   1  34 W17G29    30.13R WCI  13
MD SCIENCE CTR   N/A     25  -2  31 MISG      30.12R
MARTIN STATE   MOSUNNY   28   3  34 W21G29    30.15R WCI  15
ANNAPOLIS      SUNNY     28   5  37 NW14G24   30.14R WCI  17
FORT MEADE*    SUNNY     27   3  36 NW13G23   30.17R WCI  16

$$

MDZ012-015-019>023-112200-
MARYLAND EASTERN SHORE

CITY           SKY/WX    TMP DP  RH WIND       PRES   REMARKS
OCEAN CITY     SUNNY     29   2  31 NW21G31   30.11R WCI  16
SALISBURY      MOSUNNY   28   4  35 NW16G28   30.11R WCI  16
BAY BRIDGE AP*   N/A     28   3  34 W16G24    30.14R WCI  17
CAMBRIDGE*     SUNNY     30   5  34 NW15G25   30.12R WCI  19
EASTON*        MOSUNNY   28   5  37 NW17G24   30.16R WCI  16

$$

MDZ017>025-112200-
SOUTHERN MARYLAND

CITY           SKY/WX    TMP DP  RH WIND       PRES   REMARKS
PATUXENT RIVER MOSUNNY   32   3  29 NW20G25   30.13R WCI  20
ST INIGOES     SUNNY     32   5  32 W21G26    30.12R WCI  20
LEONARDTOWN*   SUNNY     32   0  25 W9G16     30.15R WCI  24

$$

MDZ003>005-112200-
NORTH CENTRAL MARYLAND

CITY           SKY/WX    TMP DP  RH WIND       PRES   REMARKS
FREDERICK*     PTSUNNY   25   7  46 W14G25    30.19R WCI  13
HAGERSTOWN APT CLOUDY    21   2  43 NW20      30.13R WCI   6
WESTMINSTER*   MOSUNNY   21   7  53 W21G29    30.09R WCI   6

$$

MDZ501>502-112200-
WESTERN MARYLAND

CITY           SKY/WX    TMP DP  RH WIND       PRES   REMARKS
OAKLAND*       CLOUDY     9   0  66 W17G24    29.97R HAZE    WCI -10
CUMBERLAND*    MOSUNNY   23   1  39 W16G23    30.21R WCI  10

$$

VAZ025>031-112200-
SHENANDOAH VALLEY

CITY           SKY/WX    TMP DP  RH WIND       PRES   REMARKS
WINCHESTER*    PTSUNNY   27   1  33 W14       30.14R WCI  15
FRONT ROYAL*   FAIR      27   0  31 W9G18     30.13R WCI  17
LURAY*         FAIR      27   0  31 W8        30.13R WCI  18
NEW MARKET*    FAIR      25  -1  32 W14G20    30.13R WCI  13
STAUNTON*      FAIR      30   0  27 NW13G18   30.13R WCI  20
WAYNESBORO*    FAIR      26  -5  25 W8G16     30.08R WCI  18

$$

WVZ021-048>050-054>055-112200-
EASTERN WEST VIRGINIA PANHANDLE

CITY           SKY/WX    TMP DP  RH WIND       PRES   REMARKS
MARTINSBURG    PTSUNNY   24  -2  32 NW21G31   30.15R WCI   9
PETERSBURG*    FAIR      23   2  39 W22       30.17R WCI   7

$$

VAZ036>039-050-112200-
CENTRAL FOOTHILLS

CITY           SKY/WX    TMP DP  RH WIND       PRES   REMARKS
CHARLOTTESVILL FAIR      30  -3  24 NW12      30.13R WCI  20
CULPEPER*      FAIR      29  -1  27 NW12      30.16R WCI  19
ORANGE*        FAIR      32   0  25 W5G20     30.15R
GORDONSVILLE*  FAIR      30  -3  24 NW6       30.14R
WARRENTON*     FAIR      31   6  35 W16G22    30.15R WCI  20

$$

VAZ055>057-112200-
NORTH AND CENTRAL PIEDMONT

CITY           SKY/WX    TMP DP  RH WIND       PRES   REMARKS
FREDERICKSBRG* FAIR      32   3  28 NW9G18    30.14R WCI  24
STAFFORD*      FAIR      31  -1  24 NW14G21   30.18R WCI  21

$$

NCZ024-NYZ072-PAZ021-071-VAZ022-071-112200-
OTHER REGIONAL OBSERVATIONS

CITY           SKY/WX    TMP DP  RH WIND       PRES   REMARKS
NEW YORK CITY  CLOUDY    24   1  36 W10G24    29.97R WCI  14
PHILADELPHIA   PTSUNNY   25  -2  31 W25G32    30.07R WCI   9
PITTSBURGH     FLURRIES  16   4  59 W14G23    30.16R WCI   2
ROANOKE        FAIR      31   0  26 NW14      30.15R WCI  21
RICHMOND       FAIR      33   1  25 W9        30.14R WCI  25
RALEIGH        MOSUNNY   41   7  24 VRB7      30.16S

$$

ANZ530>537-112200-
MARINE OBSERVATIONS

STATION/POSITION TIME  TEMP    WIND        PRES
                       AIR SEA DIR/SP/G
                 (UTC) (F)     (DEG/KT/KT) (MB)
THOMAS PT LIGHT  2100   27 38  310/ 22/ 26 1020.8
BALT KEY BRIDGE  2000   26     300/ 22/ 25 1019.2R
COVE POINT       2000   28     320/ 16/ 24 1020.0R
LEWISETTA        2000   30 39  320/ 14/ 17 1019.7R
SOLOMONS ISLAND  2000   30 40  290/ 12/ 18   N/A
PINEY POINT      2000          320/ 21/ 25   N/A

$$




USA.gov is the U.S. government's official web portal to all federal, state and local government web resources and services.